Location: Treviso
(45.6669°N, 12.2430°E)
Time: 10:01:02
(UTC+02:00)

ISS - Pass Details

Date: 31 May 2023
Orbit: 412 x 419 km, 51.6° (Epoch: 30 May)

Event Time Altitude Azimuth Distance (km) Brightness Sun altitude
Rises 21:58:01 0° 285° (WNW) 2,353 1.2 -9.7°
Reaches altitude 10° 22:00:58 10° 257° (WSW) 1,487 -0.5 -10.1°
Maximum altitude 22:02:36 13° 227° (SW) 1,310 -1.2 -10.3°
Drops below altitude 10° 22:04:15 10° 197° (SSW) 1,484 -1.3 -10.5°
Enters shadow 22:05:10 - 185° (S) 1,702 -1.1 -10.6°
